Babson Park, FL

4:14 PM EDT on April 26, 2017 (GMT -0400)
Goddard Seadrome | | Change Station
Active Advisory: Fire Weather Warning

Elev 105 ft 27.76 °N, 81.51 °W | Updated 1 second ago

Partly Cloudy
Partly Cloudy
87.3 °F
Feels Like 89 °F
N
6.8
Wind Variable Wind from SW

Today
High -- | Low -- °F
--% Chance of Precip.
Yesterday
High -- | Low -- °F
Precip. -- in
Pressure 29.85 in
Visibility 10.0 miles
Clouds Scattered Clouds 7000 ft
Heat Index 89 °F
Dew Point 65 °F
Humidity 47%
Rainfall 0.00 in
Snow Depth Not available.
6:50 AM 7:57 PM
New Moon, 0% visible
METAR KBOW 261945Z 26011G17KT 10SM SCT070 29/12 A2985
Pressure 29.85 in
Visibility 10.0 miles
Clouds Scattered Clouds 7000 ft
Heat Index 89 °F
Dew Point 65 °F
Humidity 47%
Rainfall 0.00 in
Snow Depth Not available.
6:50 AM 7:57 PM
New Moon, 0% visible
METAR KBOW 261945Z 26011G17KT 10SM SCT070 29/12 A2985

Get Your Daily Forecast Email!

Thanks for signing up!

Be on the lookout for a verification email in your inbox.

You'll start receiving severe weather alerts in your inbox..

×

10-Day Weather Forecast

Almanac

Astronomy

Apr. 26, 2017 Rise Set
Actual Time
Civil Twilight
Nautical Twilight
Astronomical Twilight
Moon
Length of Visible Light
Length of Day
Tomorrow will be .
, % of the Moon is Illuminated

Today's Extremes

State Highs State Lows

Community

WunderPhotos

WunderBlog® & News

Nearby

Air Quality

  Air Quality AQ Index Pollutant
Not available.

Snow Depth

Station Depth Elevation

Earthquake Activity

City Distance Mag. Time & Date
Minimum magnitude displayed is 2.5.

Coastal Water Temperatures

Place Temperature

Stations

Nearby Weather Stations

Station Location Temp. Windchill Dew Point Humidity Wind Precip. Elev Updated Type
                   

Watches & Warnings

Fire Weather Warning
Issued: 10:08 AM EDT Apr. 26, 2017 – National Weather Service

... Red flag warning in effect until 8 PM EDT this evening for low
relative humidity plus high erc values for Lake, Seminole, Orange, and
Osceola counties...

The National Weather Service in Melbourne has issued a red flag
warning, which is in effect until 8 PM EDT this evening.

* Affected area... Lake, Seminole, Orange, and Osceola counties.

* Humidity... 25 to 30 percent for 4 to 6 hours today.

* Impacts... any new or existing fires will spread rapidly. Outdoor
burning is not recommended.

Precautionary/preparedness actions...

A red flag warning means that critical fire weather conditions
are either occurring now... .or will shortly. A combination of
strong winds... low relative humidity... and warm temperatures can
contribute to extreme fire behavior.



Ulrich